• In Hungary
  • List of Countries
  • For 7 days
  • Water Temperature
  • Satellite Maps
  • Weather Map
  • News
  • Weather Widgets
  • user-avatar
    Login

    Hourly Weather Rixensart

    Today, 11 December, Monday

    Time Temperature Precipitation Wind Pressure Humidity
    00:00 +2°C° 0 mm 2 mps 728 mmHg 93%
    01:00 +2°C° 0 mm 2 mps 728 mmHg 93%
    02:00 +2°C° 0 mm 2 mps 728 mmHg 93%
    03:00 +3°C° 0 mm 1 mps 728 mmHg 93%
    04:00 +1°C° 0.1 mm 3 mps 728 mmHg 92%
    05:00 0°C° 0.1 mm 4 mps 727 mmHg 91%
    06:00 -1°C° 0.1 mm 6 mps 727 mmHg 90%
    07:00 -1°C° 1.1 mm 6 mps 726 mmHg 90%
    08:00 -1°C° 1.1 mm 7 mps 726 mmHg 89%
    09:00 -1°C° 1.1 mm 8 mps 725 mmHg 89%
    10:00 -1°C° 2.8 mm 8 mps 725 mmHg 91%
    11:00 -1°C° 2.8 mm 7 mps 724 mmHg 92%
    12:00 -1°C° 2.8 mm 7 mps 724 mmHg 94%
    13:00 0°C° 1 mm 7 mps 723 mmHg 94%
    14:00 +1°C° 1 mm 6 mps 723 mmHg 93%
    15:00 +1°C° 1 mm 6 mps 722 mmHg 93%
    16:00 +1°C° 1.4 mm 6 mps 723 mmHg 93%
    17:00 +1°C° 1.4 mm 6 mps 723 mmHg 93%
    18:00 0°C° 1.4 mm 7 mps 723 mmHg 93%
    19:00 -1°C° 0.4 mm 7 mps 725 mmHg 92%
    20:00 -1°C° 0.4 mm 7 mps 726 mmHg 92%
    21:00 -2°C° 0.4 mm 6 mps 728 mmHg 92%
    22:00 -2°C° 0.1 mm 6 mps 730 mmHg 92%
    23:00 -2°C° 0.1 mm 6 mps 732 mmHg 92%

    Tomorrow, 12 December, Tuesday

    Time Temperature Precipitation Wind Pressure Humidity
    00:00 0°C° 0.1 mm 5 mps 733 mmHg 92%
    01:00 0°C° 0.2 mm 5 mps 735 mmHg 90%
    02:00 -1°C° 0.2 mm 5 mps 737 mmHg 89%
    03:00 -1°C° 0.2 mm 5 mps 739 mmHg 87%
    04:00 -1°C° 0.1 mm 4 mps 740 mmHg 88%
    05:00 -1°C° 0.1 mm 4 mps 741 mmHg 89%
    06:00 -1°C° 0.1 mm 4 mps 742 mmHg 90%
    07:00 -1°C° 0.2 mm 4 mps 743 mmHg 91%
    08:00 -1°C° 0.2 mm 5 mps 744 mmHg 92%
    09:00 -1°C° 0.2 mm 5 mps 745 mmHg 93%
    10:00 -1°C° 0.2 mm 5 mps 746 mmHg 93%
    11:00 0°C° 0.2 mm 5 mps 746 mmHg 92%
    12:00 0°C° 0.2 mm 5 mps 747 mmHg 92%
    13:00 0°C° 0.1 mm 4 mps 748 mmHg 91%
    14:00 -1°C° 0.1 mm 4 mps 748 mmHg 90%
    15:00 0°C° 0.1 mm 3 mps 749 mmHg 89%
    16:00 0°C° 0 mm 3 mps 749 mmHg 90%
    17:00 -1°C° 0 mm 3 mps 750 mmHg 90%
    18:00 -1°C° 0 mm 3 mps 750 mmHg 90%
    19:00 -2°C° 0 mm 4 mps 750 mmHg 90%
    20:00 -2°C° 0 mm 4 mps 751 mmHg 90%
    21:00 -1°C° 0 mm 4 mps 751 mmHg 90%
    22:00 -1°C° 0 mm 5 mps 751 mmHg 91%
    23:00 -1°C° 0 mm 5 mps 751 mmHg 91%

    Day after tomorrow, 13 December, Wednesday

    Time Temperature Precipitation Wind Pressure Humidity
    00:00 -2°C° 0 mm 6 mps 750 mmHg 92%
    01:00 -2°C° 0 mm 6 mps 750 mmHg 92%
    02:00 -1°C° 0 mm 6 mps 750 mmHg 92%
    03:00 -1°C° 0 mm 7 mps 749 mmHg 91%
    04:00 -1°C° 0 mm 7 mps 749 mmHg 90%
    05:00 -1°C° 0 mm 7 mps 748 mmHg 89%
    06:00 -1°C° 0 mm 8 mps 747 mmHg 88%
    07:00 -1°C° 0.8 mm 8 mps 746 mmHg 89%
    08:00 0°C° 0.8 mm 9 mps 746 mmHg 89%
    09:00 0°C° 0.8 mm 10 mps 745 mmHg 90%
    10:00 +1°C° 0.9 mm 9 mps 744 mmHg 91%
    11:00 +1°C° 0.9 mm 8 mps 744 mmHg 92%
    12:00 +2°C° 0.9 mm 7 mps 743 mmHg 94%
    13:00 +3°C° 0.2 mm 7 mps 743 mmHg 93%
    14:00 +3°C° 0.2 mm 6 mps 743 mmHg 93%
    15:00 +3°C° 0.2 mm 5 mps 743 mmHg 93%
    16:00 +3°C° 0.6 mm 6 mps 742 mmHg 93%
    17:00 +4°C° 0.6 mm 6 mps 742 mmHg 94%
    18:00 +4°C° 0.6 mm 6 mps 742 mmHg 94%
    19:00 +4°C° 0.3 mm 6 mps 742 mmHg 92%
    20:00 +3°C° 0.3 mm 6 mps 742 mmHg 89%
    21:00 +3°C° 0.3 mm 5 mps 742 mmHg 87%
    22:00 +3°C° 0.1 mm 6 mps 742 mmHg 85%
    23:00 +3°C° 0.1 mm 6 mps 742 mmHg 83%

    14 December, Thursday

    Time Temperature Precipitation Wind Pressure Humidity
    00:00 +3°C° 0.1 mm 7 mps 742 mmHg 82%
    01:00 +2°C° 0 mm 6 mps 742 mmHg 81%
    02:00 +2°C° 0 mm 6 mps 742 mmHg 80%
    03:00 +1°C° 0 mm 6 mps 742 mmHg 79%
    04:00 +2°C° 0.1 mm 6 mps 741 mmHg 80%
    05:00 +2°C° 0.1 mm 7 mps 740 mmHg 81%
    06:00 +1°C° 0.1 mm 8 mps 740 mmHg 83%
    07:00 +1°C° 0.6 mm 9 mps 739 mmHg 83%
    08:00 +2°C° 0.6 mm 10 mps 738 mmHg 82%
    09:00 +2°C° 0.6 mm 11 mps 737 mmHg 82%
    10:00 +2°C° 1.8 mm 9 mps 736 mmHg 82%
    11:00 +2°C° 1.8 mm 8 mps 735 mmHg 82%
    12:00 +3°C° 1.8 mm 7 mps 735 mmHg 81%
    13:00 +3°C° 0.1 mm 7 mps 735 mmHg 79%
    14:00 +2°C° 0.1 mm 6 mps 735 mmHg 77%
    15:00 +2°C° 0.1 mm 6 mps 735 mmHg 75%
    16:00 +2°C° 0 mm 5 mps 736 mmHg 75%
    17:00 +1°C° 0 mm 5 mps 736 mmHg 76%
    18:00 +1°C° 0 mm 5 mps 737 mmHg 76%
    19:00 0°C° 0 mm 5 mps 737 mmHg 77%
    20:00 0°C° 0 mm 5 mps 738 mmHg 78%
    21:00 0°C° 0 mm 5 mps 738 mmHg 78%
    22:00 0°C° 0 mm 5 mps 738 mmHg 79%
    23:00 0°C° 0 mm 5 mps 739 mmHg 80%

    15 December, Friday

    Time Temperature Precipitation Wind Pressure Humidity
    00:00 0°C° 0 mm 5 mps 739 mmHg 81%
    01:00 0°C° 0 mm 5 mps 739 mmHg 83%
    02:00 0°C° 0 mm 5 mps 739 mmHg 86%
    03:00 0°C° 0 mm 5 mps 739 mmHg 88%
    04:00 0°C° 0.1 mm 5 mps 739 mmHg 88%
    05:00 0°C° 0.1 mm 4 mps 739 mmHg 89%
    06:00 0°C° 0.1 mm 4 mps 739 mmHg 89%
    07:00 0°C° 0.5 mm 4 mps 739 mmHg 89%
    08:00 0°C° 0.5 mm 4 mps 739 mmHg 89%
    09:00 0°C° 0.5 mm 4 mps 740 mmHg 89%
    10:00 0°C° 0.8 mm 4 mps 740 mmHg 89%
    11:00 +1°C° 0.8 mm 4 mps 740 mmHg 90%
    12:00 +1°C° 0.8 mm 4 mps 740 mmHg 90%
    13:00 +2°C° 0.7 mm 3 mps 740 mmHg 92%
    14:00 +2°C° 0.7 mm 3 mps 740 mmHg 93%
    15:00 +2°C° 0.7 mm 3 mps 740 mmHg 94%
    16:00 +2°C° 0.1 mm 2 mps 741 mmHg 94%
    17:00 +2°C° 0.1 mm 2 mps 742 mmHg 93%
    18:00 +1°C° 0.1 mm 2 mps 742 mmHg 93%
    19:00 +1°C° 0 mm 2 mps 743 mmHg 92%
    20:00 +2°C° 0 mm 2 mps 744 mmHg 91%
    21:00 +2°C° 0 mm 2 mps 745 mmHg 91%
    22:00 +2°C° 0 mm 2 mps 745 mmHg 89%
    23:00 +2°C° 0 mm 2 mps 746 mmHg 88%

    16 December, Saturday

    Time Temperature Precipitation Wind Pressure Humidity
    00:00 +1°C° 0 mm 2 mps 746 mmHg 86%
    01:00 +1°C° 0 mm 2 mps 747 mmHg 87%
    02:00 0°C° 0 mm 3 mps 747 mmHg 88%
    03:00 0°C° 0 mm 3 mps 747 mmHg 88%
    04:00 0°C° 0.1 mm 3 mps 748 mmHg 89%
    05:00 0°C° 0.1 mm 3 mps 748 mmHg 90%
    06:00 0°C° 0.1 mm 3 mps 749 mmHg 91%
    07:00 0°C° 0.2 mm 4 mps 749 mmHg 91%
    08:00 0°C° 0.2 mm 4 mps 750 mmHg 90%
    09:00 0°C° 0.2 mm 4 mps 750 mmHg 90%
    10:00 +1°C° 0.2 mm 4 mps 750 mmHg 87%
    11:00 +1°C° 0.2 mm 5 mps 751 mmHg 85%
    12:00 +2°C° 0.2 mm 5 mps 751 mmHg 82%
    13:00 +1°C° 0.1 mm 4 mps 751 mmHg 83%
    14:00 +1°C° 0.1 mm 4 mps 751 mmHg 83%
    15:00 +1°C° 0.1 mm 4 mps 752 mmHg 83%
    16:00 +1°C° 0 mm 3 mps 752 mmHg 84%
    17:00 0°C° 0 mm 3 mps 752 mmHg 85%
    18:00 -1°C° 0 mm 3 mps 753 mmHg 86%
    19:00 -1°C° 0 mm 3 mps 753 mmHg 86%
    20:00 -1°C° 0 mm 3 mps 753 mmHg 86%
    21:00 -1°C° 0 mm 3 mps 753 mmHg 86%
    22:00 -2°C° 0 mm 4 mps 753 mmHg 86%
    23:00 -2°C° 0 mm 4 mps 752 mmHg 86%
    Show more